SCP
0 0 0 0 0 0 0 0 0 0 0 0 0 0 0 0 0 0 0 0 0 0 0 0 0 0 0 0 0 1 1 0 0 0 0 0 1 1 1 1 1 1 1 0 0 0 0 0 0
0 0 0 0 0 0 0 0 0 0 0 0 0 0 0 0 0 0 0 0 0 0 0 0 0 0 0 0 0 1 1 1 1 0 0 0 1 1 1 1 1 1 0 0 0 0 0 0 0
0 0 0 0 0 0 0 0 0 0 0 0 0 0 0 0 0 0 0 0 0 0 0 0 0 0 0 0 0 0 1 1 1 1 1 0 0 0 0 0 0 0 0 0 0 0 0 0 0
0 0 0 0 0 0 0 0 0 0 0 0 0 0 0 0 0 0 0 1 0 0 0 0 1 0 0 0 0 0 1 1 1 1 1 1 1 0 0 0 0 0 0 0 0 0 0 0 0
0 0 0 0 0 0 0 0 0 0 0 0 0 0 0 0 0 0 1 1 1 0 0 0 0 0 0 0 0 1 1 1 1 1 1 1 1 1 0 0 0 0 0 0 0 0 0 1 1
0 0 0 0 0 0 0 0 0 0 0 0 0 0 0 0 0 0 1 1 1 1 0 0 0 0 0 0 1 1 1 1 1 1 1 1 1 1 1 1 1 1 1 1 1 1 1 1 1
0 0 0 0 0 0 0 0 0 0 0 0 0 0 0 0 0 0 1 1 1 1 1 0 0 0 0 1 1 1 1 1 1 1 1 1 1 1 1 1 1 1 1 1 1 1 1 1 1
0 0 0 0 0 0 0 0 0 0 0 0 0 0 0 0 1 1 1 1 1 1 0 0 0 0 0 0 0 1 1 1 1 0 0 1 1 1 1 1 1 1 1 1 1 1 1 0 0
0 0 0 0 0 0 0 0 0 0 0 0 0 0 0 1 1 1 1 1 1 0 0 0 0 0 0 0 0 0 1 1 0 0 0 0 0 1 1 1 1 1 1 1 1 1 1 0 0
0 0 0 0 0 0 0 0 0 0 0 0 1 1 1 1 1 1 0 0 0 0 0 0 0 0 0 0 0 0 0 0 0 0 0 0 0 0 0 0 0 1 1 1 1 1 0 0 0
0 0 0 0 0 0 0 0 0 0 0 0 1 1 1 1 1 1 0 0 0 0 0 0 0 0 0 0 0 0 0 0 0 0 0 0 0 0 0 0 0 0 0 0 0 0 0 0 0
0 0 0 0 0 0 0 0 1 1 0 0 0 1 0 0 0 0 0 0 0 0 0 1 1 0 0 0 0 0 0 0 0 0 0 0 0 0 0 0 0 0 0 0 0 0 0 0 0
0 0 0 0 0 0 0 0 0 0 0 0 1 0 0 0 0 0 0 0 0 0 0 1 1 1 0 0 0 0 0 0 0 0 0 0 0 0 0 0 0 0 0 0 0 0 0 0 0
0 0 0 0 0 0 0 0 0 0 0 0 0 0 0 0 0 0 0 0 0 0 0 0 1 1 0 0 0 0 0 0 0 0 0 0 0 0 0 0 0 0 0 0 0 0 0 0 0
0 0 0 0 0 0 0 0 0 0 0 0 0 0 0 0 0 0 1 1 0 0 0 0 0 0 0 0 0 0 0 0 0 0 0 0 0 0 0 0 0 0 0 0 0 0 0 0 0
0 0 0 0 0 0 0 0 0 0 1 0 0 0 0 0 0 1 1 1 1 1 1 1 0 0 0 0 0 0 0 0 0 0 0 0 0 0 0 0 0 0 0 0 0 0 0 0 0
0 0 0 0 0 0 0 0 0 1 1 0 0 0 0 0 0 1 1 1 1 1 1 1 1 0 0 0 0 0 0 0 0 0 0 0 0 0 0 0 0 0 0 0 0 0 0 0 0
0 0 0 0 0 0 0 0 0 1 1 1 0 0 0 0 0 1 2 2 1 1 1 1 1 0 0 0 0 0 0 0 0 0 0 0 0 0 0 0 0 0 0 0 0 0 0 0 0
0 0 0 0 0 0 0 0 0 1 1 1 1 0 0 0 1 2 2 2 1 1 1 1 1 1 0 0 0 0 0 0 0 0 0 0 0 0 0 0 0 0 0 0 0 0 0 0 0
0 0 0 0 0 0 0 0 0 1 1 1 1 0 0 1 2 2 3 2 2 1 1 1 1 1 0 0 0 0 0 0 0 0 0 0 0 0 0 0 0 0 0 0 0 0 0 0 0
0 0 0 0 0 0 0 0 0 0 0 1 1 0 0 1 2 2 2 2 1 1 1 1 1 1 1 0 0 0 0 0 0 0 0 0 0 0 0 0 0 0 0 0 0 0 0 0 0
0 0 0 0 0 0 0 0 0 0 0 0 0 0 0 1 1 1 2 1 1 1 1 1 1 1 1 1 0 0 0 0 0 0 0 0 0 0 0 0 0 0 0 0 0 0 0 0 0
0 0 0 0 0 0 0 0 0 0 0 0 0 0 0 1 1 1 1 1 1 1 1 1 1 1 1 1 0 0 0 0 0 0 0 0 0 0 0 0 0 0 0 0 0 0 0 0 0
0 0 0 0 0 0 0 0 0 0 0 0 0 0 1 1 1 1 1 1 1 1 1 1 1 1 1 1 0 0 0 0 0 0 0 0 0 0 0 0 0 0 0 0 0 0 0 0 0
0 0 0 0 0 0 0 0 0 0 0 0 0 0 0 1 1 1 1 1 1 0 1 0 0 0 1 1 0 0 0 0 0 0 0 0 0 0 0 0 0 0 0 0 0 0 0 0 0
0 0 0 0 0 0 0 0 0 0 0 0 0 0 0 1 1 1 1 0 0 0 0 0 0 0 0 0 0 0 0 0 0 0 0 0 0 0 0 0 0 0 0 0 0 0 0 0 0
0 0 0 0 0 0 0 0 0 0 0 0 0 0 1 1 1 1 1 0 0 0 0 0 0 0 0 0 0 0 0 0 0 0 0 0 0 0 0 0 0 0 0 0 0 0 0 0 0
0 0 0 0 0 0 0 0 0 0 0 0 0 0 0 1 1 1 1 0 0 0 0 0 0 0 0 0 0 0 0 0 0 0 0 0 0 0 0 0 0 0 0 0 0 0 0 0 0
0 0 0 0 0 0 0 0 0 0 0 0 0 0 0 0 0 0 0 0 0 0 0 0 0 0 0 0 0 0 0 0 1 0 0 0 0 0 0 0 0 0 0 0 0 0 0 0 0
0 0 0 0 0 0 0 0 0 0 0 0 0 0 0 0 0 0 0 0 0 0 0 0 0 0 0 0 0 0 1 1 1 1 0 0 0 0 0 0 0 0 0 0 0 0 0 0 0
Wind_Speed
4 2 2 3 5 5 2 1 1 2 4 4 8 10 7 5 4 4 2 7 8 6 4 7 9 10 10 9 9 9 10 9 9 10 10 10 10 10 10 10 10 10 10 10 9 9 9 9 9
1 1 3 4 5 3 1 1 3 3 5 5 7 8 7 5 4 5 3 7 9 7 5 6 9 10 9 9 9 9 9 9 9 9 9 9 10 9 10 10 10 10 9 9 9 9 8 8 8
1 0 3 4 3 3 2 1 3 3 4 4 5 5 5 4 4 4 6 10 8 7 5 6 10 9 9 9 8 8 8 8 9 9 9 9 9 9 9 9 9 9 9 9 8 8 8 8 8
2 4 4 5 3 1 4 3 3 5 5 5 6 6 4 2 3 6 10 10 9 6 4 6 10 9 9 8 8 8 8 8 8 9 9 9 9 9 9 9 9 9 8 8 8 8 8 8 8
3 4 5 3 2 0 2 2 4 5 3 4 7 6 3 2 6 10 10 10 9 6 4 5 9 10 9 8 7 8 8 8 8 8 8 8 8 9 9 8 8 8 8 8 7 7 8 8 7
4 4 4 2 1 1 1 3 5 6 6 6 7 5 2 2 6 8 9 8 8 7 4 4 8 10 9 8 8 7 8 8 7 7 7 8 8 8 8 8 8 7 7 7 7 7 7 7 7
4 4 2 2 2 1 2 2 5 5 4 4 5 5 3 2 4 7 8 8 7 6 4 3 3 5 8 8 8 7 7 7 7 6 7 7 7 7 7 7 6 6 6 6 6 6 6 7 7
4 4 2 1 2 1 2 2 4 6 4 4 5 7 5 5 5 7 7 6 6 5 4 3 3 3 3 3 7 7 7 7 6 6 6 5 5 5 6 5 5 5 5 5 5 5 6 6 7
4 5 1 1 3 2 2 4 2 3 5 3 3 4 6 8 7 7 5 4 4 5 4 4 3 3 3 3 5 5 6 5 5 4 4 3 2 2 2 3 4 4 4 4 5 5 6 7 7
5 3 2 2 3 3 3 4 3 3 5 4 4 5 7 7 7 7 6 6 5 5 5 4 4 3 3 3 2 1 2 1 1 1 2 1 1 1 2 2 3 3 4 4 5 6 6 5 3
3 3 2 1 2 3 3 2 2 5 2 5 8 9 8 7 6 6 6 6 5 5 5 5 4 4 3 2 2 1 1 1 1 2 2 2 1 1 1 1 1 2 2 2 3 4 3 3 3
3 1 3 2 2 3 3 2 2 3 4 6 10 11 9 8 7 7 7 6 5 4 4 4 5 4 3 3 2 2 2 2 1 1 2 2 1 1 1 1 1 1 1 2 2 2 3 3 3
2 1 1 2 2 3 4 3 3 2 4 7 8 8 8 8 6 5 4 4 5 5 4 4 4 4 3 3 2 2 2 2 2 1 1 2 2 2 2 1 1 1 1 2 2 2 3 3 3
2 1 1 1 2 2 5 2 3 2 5 8 8 7 6 6 6 4 4 4 4 5 5 4 4 4 4 3 2 2 2 2 2 1 2 3 3 2 2 2 2 1 1 2 2 3 3 2 3
2 2 2 1 2 2 5 2 1 3 6 7 6 5 5 5 5 6 6 5 5 4 4 4 4 4 4 3 2 2 2 2 2 1 2 3 3 3 3 3 2 1 1 3 3 3 3 3 3
3 2 1 4 2 3 6 2 4 4 7 6 5 4 4 3 5 6 6 5 5 4 4 3 4 4 4 3 3 2 2 2 2 1 2 3 4 4 3 3 2 2 2 2 3 2 3 3 3
2 1 3 3 2 2 4 3 3 4 8 7 5 4 4 3 3 4 5 6 6 5 4 3 3 4 3 3 3 3 3 3 2 2 2 2 3 3 3 3 2 2 2 2 3 2 2 3 3
3 2 2 3 2 3 3 3 3 4 6 7 5 4 3 3 3 4 5 6 6 4 4 3 3 3 4 3 3 2 3 2 2 2 2 2 2 3 3 3 3 3 3 2 2 3 2 2 2
3 1 1 3 3 3 3 4 4 4 4 5 5 5 4 3 2 3 5 5 5 4 4 3 4 3 3 2 2 2 1 1 1 1 2 2 2 3 3 3 3 3 3 2 3 3 3 2 2
1 1 1 2 1 2 2 2 3 3 6 7 7 6 5 4 3 3 4 4 5 4 4 4 4 4 3 2 2 2 2 1 1 1 1 1 2 2 3 4 3 3 3 3 3 3 2 1 1
0 2 3 2 2 2 3 3 2 2 2 3 4 5 5 7 7 5 5 4 4 4 4 5 4 4 4 3 2 2 2 2 2 1 1 1 1 2 3 3 3 3 3 3 3 3 4 2 0
2 3 3 2 2 2 2 1 5 3 1 3 4 4 5 5 5 4 4 4 4 4 4 4 4 4 4 4 4 4 3 2 1 1 0 1 1 2 3 3 3 3 3 3 3 3 3 3 1
4 3 1 1 2 1 0 3 5 1 2 4 5 5 5 5 6 6 5 5 4 4 3 3 3 4 4 4 4 4 3 2 1 1 1 1 1 1 2 3 3 3 2 3 2 2 2 2 2
0 4 6 5 4 1 3 4 4 3 6 5 4 4 4 4 5 5 3 3 3 3 3 3 3 3 3 4 4 4 4 3 3 1 1 0 0 1 1 2 2 2 2 2 2 2 3 2 2
5 6 5 5 4 5 2 2 5 4 3 5 5 4 4 3 4 4 3 3 3 3 3 3 3 2 2 3 3 4 4 4 4 3 2 1 1 1 1 2 2 2 2 2 2 2 2 2 2
1 7 6 3 3 4 2 2 3 1 2 4 5 5 4 3 3 3 3 3 3 3 3 3 3 2 2 3 3 3 4 3 2 3 2 2 2 2 2 2 2 2 2 2 2 2 1 1 2
2 2 5 6 1 1 3 2 2 3 3 4 4 5 4 3 2 3 2 3 3 3 3 4 4 3 3 3 3 3 3 3 3 3 2 2 2 1 2 2 2 2 2 2 3 2 1 1 1
4 4 5 4 1 2 4 2 3 3 3 3 3 4 3 2 2 2 2 3 2 2 2 2 3 4 3 3 3 3 3 3 4 3 3 2 2 1 2 2 2 2 2 2 2 2 1 2 1
1 2 4 3 4 4 2 5 4 6 6 6 5 5 5 4 3 2 2 2 1 1 1 1 1 2 2 2 3 2 3 3 3 3 3 3 2 2 3 3 3 3 2 2 3 2 2 2 1
3 3 5 4 2 3 3 6 3 3 4 5 4 3 3 4 3 2 2 1 1 1 1 1 1 1 2 2 3 3 3 3 3 2 3 2 2 2 3 3 3 3 2 2 3 3 2 2 2
Wind_Direction
309 327 92 67 58 55 61 330 124 62 49 46 72 82 82 67 87 131 176 139 132 129 127 123 120 116 114 111 105 102 102 100 101 100 97 93 91 90 87 87 87 87 85 83 83 82 81 78 75
333 350 61 61 79 78 24 308 87 90 126 118 84 83 79 72 87 113 131 139 134 133 133 129 126 123 121 115 109 105 105 105 105 105 100 96 93 93 90 88 88 89 88 85 81 80 80 76 71
323 96 74 67 86 139 159 201 119 94 106 96 80 59 74 104 111 127 143 139 132 129 133 137 130 126 121 115 112 110 108 107 108 106 103 100 98 96 92 89 89 89 88 86 82 79 76 72 70
58 47 55 69 78 176 169 179 130 94 58 58 91 68 55 70 132 133 135 136 129 128 133 141 135 131 124 118 114 115 116 113 111 110 109 104 101 98 96 95 93 91 89 84 81 78 74 70 67
70 72 61 63 71 145 156 138 109 95 79 78 91 89 59 22 107 125 131 135 132 135 138 146 141 137 133 129 124 120 122 119 115 115 115 111 108 105 103 100 95 92 89 83 80 77 74 70 67
58 66 78 96 146 165 168 128 103 98 109 111 102 104 90 93 114 131 134 133 136 141 143 145 144 140 139 138 133 130 129 127 124 122 122 118 115 112 109 103 97 93 89 84 82 75 70 69 68
100 89 121 149 148 125 146 121 115 122 117 122 122 109 133 153 141 134 135 133 136 137 136 144 147 140 142 142 139 140 137 135 132 128 127 124 123 121 119 114 108 103 101 94 86 78 72 67 65
124 98 78 109 132 156 163 107 113 120 113 116 118 135 168 192 151 124 127 131 136 139 144 152 151 144 143 147 153 153 147 144 141 139 135 131 127 128 127 122 119 110 104 95 84 76 71 71 67
88 77 95 185 158 170 152 107 79 78 100 81 86 147 164 155 133 120 120 127 143 150 160 161 163 161 163 172 170 160 156 154 149 148 145 132 105 107 128 138 132 117 103 91 83 76 72 69 62
85 110 201 194 170 165 151 129 134 97 90 85 80 101 131 138 137 142 148 154 162 169 178 171 174 172 173 180 151 153 166 160 155 163 165 138 138 149 146 142 136 112 95 83 81 76 64 60 47
126 162 187 165 154 133 126 115 106 119 128 168 155 153 150 149 155 160 163 166 173 171 171 175 176 174 171 167 161 163 164 157 173 171 170 154 137 120 99 75 65 74 73 59 66 65 57 58 59
119 180 159 171 147 117 131 120 91 137 186 174 157 155 156 159 169 173 172 171 167 157 170 171 166 167 174 167 163 160 157 163 181 184 161 143 133 125 126 118 103 76 71 80 73 77 69 64 66
122 184 158 147 115 112 100 100 117 130 141 138 138 140 154 164 173 180 176 160 151 161 172 169 159 163 166 162 167 155 162 165 158 141 146 141 135 138 135 130 117 101 99 102 95 85 76 74 73
176 156 139 140 122 111 109 85 96 170 140 137 144 152 160 167 168 156 154 151 160 163 166 167 163 161 154 157 165 157 158 139 122 128 141 140 137 136 132 116 108 103 109 107 106 104 91 76 75
115 80 4 266 167 177 115 42 197 184 141 138 153 162 162 170 164 165 168 158 159 157 153 157 164 153 145 148 155 140 140 126 124 137 140 133 129 125 125 113 113 121 105 99 93 87 80 77 69
60 76 293 276 186 165 122 212 252 171 147 151 162 161 163 175 167 166 162 154 151 146 147 153 151 137 134 134 134 126 121 117 123 125 126 126 126 129 124 121 125 118 98 96 98 96 85 73 67
27 183 229 277 231 151 133 210 238 180 158 160 172 176 173 168 164 163 154 151 150 153 150 140 134 133 129 125 117 109 103 98 102 107 111 115 118 123 126 126 123 111 97 92 103 91 101 94 81
242 217 223 224 232 142 151 220 224 194 164 172 179 181 165 165 185 167 150 148 146 149 140 128 124 122 117 108 99 84 75 74 78 88 107 112 117 123 119 120 123 116 104 91 99 104 88 100 98
199 173 239 243 215 149 191 226 227 197 170 172 177 178 173 182 177 146 143 136 131 132 134 135 130 129 121 117 118 112 107 90 75 75 88 100 114 127 123 127 129 121 119 127 125 112 95 84 100
133 133 247 286 249 155 189 250 240 187 187 182 180 181 178 162 139 137 139 137 141 145 142 140 139 141 137 142 148 143 135 123 110 72 63 85 110 127 134 137 141 136 122 110 113 113 111 119 117
3 178 207 236 347 37 96 343 308 258 201 187 182 179 175 166 165 163 153 153 145 144 153 152 153 147 145 139 112 93 75 65 52 45 36 9 93 106 118 137 137 140 138 146 151 141 135 150 210
258 230 201 188 79 280 139 232 281 256 223 206 201 186 178 170 164 161 158 161 167 170 160 152 152 149 147 140 134 141 138 147 190 192 145 30 80 109 114 129 139 146 146 154 167 151 150 147 162
225 245 232 187 134 349 338 149 276 221 219 228 211 192 183 178 167 166 172 173 171 161 152 149 151 154 152 146 146 145 141 158 149 120 100 68 68 105 118 131 135 139 146 156 159 148 156 158 165
115 40 33 44 71 321 242 162 256 225 211 208 208 193 184 179 170 165 163 151 154 149 149 146 147 165 162 149 147 151 153 150 136 139 135 95 58 78 111 130 134 144 151 164 165 164 167 168 163
63 71 31 8 12 264 267 150 243 241 200 174 173 170 165 161 158 154 151 150 158 160 167 163 151 170 175 157 158 165 164 160 164 170 170 155 143 146 174 153 155 160 167 166 159 156 166 161 159
153 129 144 191 235 282 334 217 255 280 128 128 131 126 118 131 142 156 168 166 170 170 167 161 157 174 185 176 177 174 169 164 166 167 163 172 191 197 178 158 152 159 158 159 154 149 155 143 151
127 157 169 148 234 286 296 306 330 38 71 91 106 112 125 139 150 159 162 167 179 188 188 179 177 182 192 191 177 176 176 168 169 173 163 182 202 194 165 159 151 156 161 157 145 137 147 135 138
150 150 88 101 125 292 300 265 231 214 182 150 146 151 170 172 160 164 175 178 189 198 200 182 173 181 188 184 181 183 191 184 177 167 171 178 191 180 168 162 161 158 158 156 146 154 148 131 149
114 101 111 126 155 161 258 274 227 197 189 175 179 176 179 184 181 177 183 177 174 144 139 159 179 165 167 180 183 181 189 189 170 169 182 184 184 178 180 176 166 159 160 157 155 167 143 132 139
159 167 143 150 227 173 182 265 286 196 181 162 165 171 175 174 173 176 169 134 128 141 152 168 188 180 188 187 182 187 185 171 168 186 193 184 181 183 182 173 165 163 161 159 160 173 162 156 161